Theta_e
307 309 311 307 303 311 304 301 302 306 310 314 320 321 324 326 328 331 334 336 337 339 342 345 347 349 351 353 354 356 355 359
305 309 309 308 310 301 303 298 295 300 303 305 314 317 322 324 325 329 333 336 337 340 343 346 347 350 352 354 354 355 355 356
304 303 303 304 303 304 307 304 300 298 302 315 317 321 321 323 325 327 331 334 338 342 345 347 348 348 350 351 354 355 356 358
301 307 307 307 305 306 302 301 302 303 303 314 317 320 322 322 324 327 331 333 337 340 343 344 347 346 347 350 351 354 356 356
300 304 305 303 305 307 307 306 305 299 303 317 316 318 320 320 326 329 331 333 336 339 343 346 347 349 349 350 349 351 354 351
297 301 305 302 302 304 304 301 302 302 306 312 315 318 323 324 326 329 331 332 335 338 343 346 349 350 351 349 350 351 352 350
306 307 305 304 302 303 302 305 302 305 306 312 317 319 324 329 329 328 329 332 336 337 342 346 348 351 351 350 353 354 353 350
304 307 305 302 304 304 304 305 305 307 308 317 320 321 320 324 326 328 330 331 334 337 339 342 345 346 348 350 351 355 351 349
299 305 302 298 304 305 306 308 307 304 311 319 315 317 321 326 327 329 332 334 334 336 341 342 342 345 345 348 353 352 350 348
301 300 292 304 310 309 307 308 310 311 314 317 319 322 324 327 328 329 332 334 334 334 338 341 342 343 347 349 352 351 349 345
301 299 302 305 311 306 304 307 313 312 316 319 319 318 321 322 324 328 330 332 334 335 337 339 342 345 348 349 351 350 347 344
301 297 295 306 312 316 316 304 317 318 319 319 319 313 320 322 324 327 330 333 335 337 339 340 341 346 347 348 348 347 347 345
302 299 304 312 315 316 304 308 317 318 320 319 318 320 323 326 328 330 330 332 336 339 340 343 345 344 344 346 346 349 348 346
305 300 298 315 314 310 315 319 319 320 321 320 323 326 329 331 332 334 336 338 339 339 340 343 345 346 345 345 349 348 344 343
305 305 314 314 315 317 318 319 321 326 328 329 327 328 330 331 332 333 334 335 338 339 340 342 344 344 342 336 341 344 344 342
310 312 312 313 315 315 316 315 317 319 321 324 324 327 330 332 332 333 334 335 338 340 339 338 340 337 340 341 343 343 341 340
309 310 312 311 314 316 316 316 315 316 318 322 327 327 330 331 333 334 335 335 335 336 336 334 336 337 339 338 338 339 339 339
307 313 314 312 314 316 313 313 315 315 315 318 321 326 330 331 333 334 334 334 335 334 335 333 332 336 337 336 337 337 335 334
313 316 314 313 313 311 310 310 312 312 312 312 315 320 323 323 327 324 333 332 332 334 334 335 335 335 335 336 337 335 331 329
Wind_Speed
11 9 18 15 14 16 8 2 8 7 6 11 13 15 16 21 15 20 23 25 27 25 23 22 19 21 21 19 17 17 17 13
17 13 9 16 15 11 8 17 15 8 5 7 6 13 16 15 18 20 22 23 25 24 23 20 21 21 19 19 21 18 16 15
8 19 21 8 9 4 7 9 15 15 13 8 13 13 12 15 17 19 19 22 23 21 21 21 20 18 19 19 18 17 17 16
14 7 8 24 20 18 11 12 5 10 14 5 14 13 10 14 13 10 15 19 20 20 21 20 19 19 21 20 20 20 17 16
14 16 9 9 17 20 18 14 17 15 11 4 6 9 14 17 14 7 11 16 16 18 19 19 19 17 18 19 22 19 16 16
16 19 15 16 12 16 19 16 15 16 17 10 10 12 15 16 14 11 10 14 15 16 18 17 17 17 16 17 17 16 16 15
20 21 23 23 22 21 19 22 20 17 18 17 15 17 17 15 9 10 11 15 17 18 16 16 16 15 15 15 14 15 15 15
15 25 23 27 26 23 23 24 20 22 16 12 14 10 12 15 12 13 15 17 18 16 16 17 17 16 14 14 15 14 15 16
8 17 20 22 25 24 20 21 21 20 14 11 12 15 16 14 14 16 16 16 16 18 15 14 15 13 14 13 14 15 15 15
3 4 10 15 23 25 24 20 18 15 11 11 12 8 9 9 14 16 13 12 12 11 12 12 12 12 12 13 14 14 14 15
3 7 7 5 5 13 22 22 14 16 15 11 5 4 8 5 9 12 9 7 9 10 11 11 12 12 13 13 12 12 14 15
3 5 7 2 2 4 2 14 13 11 10 9 8 8 5 2 5 8 9 9 11 12 11 11 11 13 13 13 13 14 14 15
6 5 6 7 9 2 10 4 3 8 9 11 7 2 4 7 8 8 10 14 11 11 12 10 11 12 12 13 15 15 14 14
4 4 12 14 2 6 5 5 8 10 16 20 16 14 14 13 12 12 11 12 12 12 12 10 9 7 7 7 4 7 10 15
10 5 11 9 2 3 5 8 11 13 13 20 23 18 15 14 13 12 11 10 10 12 12 9 8 7 7 6 8 10 12 11
8 4 7 5 10 10 13 13 12 12 13 13 18 18 14 11 12 10 9 10 8 10 11 8 6 4 6 12 10 11 8 8
5 10 9 3 6 6 13 14 15 14 15 15 17 14 15 10 10 8 7 7 7 6 6 8 4 10 5 6 7 12 8 8
8 13 2 5 6 9 13 11 12 16 17 17 15 14 15 13 9 7 7 5 4 7 7 11 7 7 7 7 8 10 8 7
4 10 8 5 8 11 12 12 12 15 12 12 10 11 12 10 7 6 6 5 4 8 9 7 8 8 8 7 9 10 7 7
Wind_Direction
205 191 179 177 209 215 221 21 225 190 241 274 249 249 245 240 224 215 213 211 210 206 206 205 198 201 200 199 202 207 206 204
198 195 188 206 175 189 213 217 229 203 235 233 221 244 241 239 224 227 217 209 209 208 205 203 202 203 199 197 202 202 203 206
176 207 199 171 183 210 235 233 230 234 232 211 232 244 246 242 231 232 218 210 205 204 201 203 204 202 202 202 200 200 201 199
215 205 240 222 214 208 214 191 225 254 224 185 232 240 243 251 250 249 219 207 204 200 200 202 203 203 204 203 202 202 199 196
230 238 201 225 226 223 229 245 213 229 221 197 230 242 248 254 263 244 212 202 196 195 198 199 201 203 205 206 211 207 197 194
224 231 233 227 226 217 221 225 222 228 237 210 237 244 257 244 248 240 210 200 197 194 200 199 200 201 205 212 211 205 199 193
227 228 215 222 228 218 217 235 231 226 219 221 224 235 236 240 255 218 201 200 199 199 198 195 197 199 203 206 200 197 188 186
243 230 224 221 220 225 222 226 230 237 221 218 230 237 243 246 230 224 210 207 207 206 197 196 195 195 196 198 196 188 183 189
242 231 218 231 223 220 226 223 210 218 222 213 227 228 229 229 228 228 218 211 202 201 193 191 192 183 188 186 180 179 185 181
292 155 213 236 224 218 213 214 216 243 243 224 238 255 259 239 238 233 228 228 206 198 191 181 177 177 171 174 176 178 179 180
226 242 271 234 169 213 214 234 225 234 233 243 243 205 245 233 232 229 205 183 192 186 175 171 168 161 160 163 165 171 178 187
110 257 252 187 56 357 298 226 186 213 226 211 147 203 206 313 194 168 162 150 152 147 146 147 147 153 148 154 164 182 183 189
122 251 274 3 324 235 187 185 193 199 203 142 148 12 77 93 90 96 114 116 118 121 112 110 130 142 153 166 186 189 184 179
106 206 256 0 260 243 26 72 107 133 126 109 107 97 86 81 77 75 83 93 96 86 85 86 103 131 148 176 149 160 171 171
130 312 326 320 353 63 73 72 67 86 94 110 102 90 86 84 75 72 65 73 86 96 98 86 97 108 133 140 151 154 195 158
119 9 322 347 73 80 78 73 68 59 60 72 89 97 84 78 78 71 61 61 64 92 89 89 77 61 143 140 167 165 151 153
79 105 292 56 81 65 85 82 72 64 63 70 81 72 89 73 65 74 79 81 80 87 106 99 118 91 110 142 167 116 137 163
160 160 240 185 136 104 95 80 74 74 61 50 67 81 78 71 54 48 56 50 92 112 102 75 99 121 149 157 112 121 143 151
34 111 120 136 125 124 107 100 86 74 66 75 53 54 67 92 80 75 82 87 85 75 87 141 148 142 126 109 125 134 138 132